Location: ?????????
(41.2286°N, 23.0068°E)
Time: 09:16:13
(UTC+00:00)

Cosmos 2123 Rocket - Pass Details

Date: 08 November 2025
Orbit: 960 x 991 km, 82.9° (Epoch: 04 December)

Event Time Altitude Azimuth Distance (km) Brightness Sun altitude
Rises 03:47:45 0° 202° (SSW) 3,661 6.9 -15.3°
Reaches altitude 10° 03:50:21 10° 207° (SSW) 2,713 6.2 -14.8°
Maximum altitude 03:56:20 49° 282° (WNW) 1,229 4.1 -13.7°
Drops below altitude 10° 04:02:20 10° 357° (N) 2,711 6.2 -12.6°
Sets 04:04:56 0° 3° (N) 3,659 6.9 -12.1°
